VCP3DO SCSE-SCEL

Flight info

Callsign VCP3DO
Flight time 0h 45m
Altitude 21000
Route EDRON5 EDRON UL302 SIMOK SIMOK7B
Aircraft DH8D/M-SDE2E3FGRY/H

Departure

Time 2026-04-23 16:55
Airport La Florida Airport (SCSE)

Arrival

Time 2026-04-23 17:40
Airport Comodoro Arturo Merino Benítez International Airport (SCEL)
Time Latitude Longitude Altitude Speed Heading
2026-04-23 16:39 -29.91620 -71.20448 468 ft 0 kts 206°
2026-04-23 16:44 -29.91620 -71.20447 468 ft 0 kts 206°
2026-04-23 16:48 -29.91620 -71.20448 467 ft 0 kts 206°
2026-04-23 16:48 -29.91620 -71.20447 467 ft 0 kts 206°
2026-04-23 16:48 -29.91620 -71.20448 467 ft 0 kts 206°
2026-04-23 16:50 -29.91626 -71.20464 467 ft 3 kts 278°
2026-04-23 16:50 -29.91607 -71.20470 466 ft 4 kts 27°
2026-04-23 16:50 -29.91587 -71.20425 467 ft 6 kts 79°
2026-04-23 16:51 -29.91595 -71.20377 469 ft 6 kts 110°
2026-04-23 16:51 -29.91608 -71.20324 470 ft 7 kts 81°
2026-04-23 16:51 -29.91566 -71.20286 470 ft 8 kts 21°
2026-04-23 16:51 -29.91538 -71.20203 470 ft 18 kts 110°
2026-04-23 16:52 -29.91623 -71.20007 475 ft 35 kts 116°
2026-04-23 16:52 -29.91741 -71.19731 480 ft 36 kts 116°
2026-04-23 16:52 -29.91842 -71.19490 487 ft 31 kts 114°
2026-04-23 16:52 -29.91931 -71.19284 493 ft 25 kts 116°
2026-04-23 16:53 -29.92017 -71.19122 496 ft 20 kts 146°
2026-04-23 16:53 -29.92029 -71.19058 496 ft 7 kts 329°
2026-04-23 16:53 -29.92019 -71.19078 496 ft 0 kts 295°
2026-04-23 16:54 -29.92015 -71.19089 496 ft 14 kts 295°
2026-04-23 16:54 -29.91825 -71.19535 486 ft 103 kts 296°
2026-04-23 16:54 -29.91420 -71.20470 510 ft 149 kts 295°
2026-04-23 16:55 -29.90913 -71.21616 840 ft 170 kts 297°
2026-04-23 16:55 -29.90251 -71.22807 1328 ft 179 kts 306°
2026-04-23 16:55 -29.89512 -71.24028 1764 ft 193 kts 300°
2026-04-23 16:55 -29.88834 -71.25433 2155 ft 207 kts 296°
2026-04-23 16:56 -29.88171 -71.26952 2686 ft 216 kts 295°
2026-04-23 16:56 -29.87759 -71.28603 3167 ft 224 kts 268°
2026-04-23 16:56 -29.87894 -71.29395 3389 ft 227 kts 249°
2026-04-23 16:56 -29.88773 -71.30635 3837 ft 235 kts 214°
2026-04-23 16:57 -29.90346 -71.31081 4341 ft 241 kts 178°
2026-04-23 16:57 -29.92031 -71.30859 4867 ft 246 kts 172°
2026-04-23 16:57 -29.93737 -71.30604 5343 ft 251 kts 172°
2026-04-23 16:57 -29.95487 -71.30352 5807 ft 256 kts 173°
2026-04-23 16:58 -29.97278 -71.30106 6310 ft 261 kts 173°
2026-04-23 16:58 -29.99093 -71.29867 6879 ft 265 kts 173°
2026-04-23 16:58 -30.00958 -71.29629 7374 ft 270 kts 173°
2026-04-23 16:58 -30.02824 -71.29395 7812 ft 274 kts 174°
2026-04-23 16:59 -30.04742 -71.29160 8261 ft 279 kts 174°
2026-04-23 16:59 -30.06700 -71.28923 8645 ft 285 kts 174°
2026-04-23 16:59 -30.08691 -71.28702 9085 ft 290 kts 176°
2026-04-23 16:59 -30.10712 -71.28695 9543 ft 295 kts 182°
2026-04-23 17:00 -30.12789 -71.28764 9941 ft 299 kts 182°
2026-04-23 17:00 -30.14891 -71.28835 10352 ft 303 kts 182°
2026-04-23 17:00 -30.16995 -71.28904 10763 ft 306 kts 182°
2026-04-23 17:00 -30.19130 -71.28973 11186 ft 306 kts 182°
2026-04-23 17:01 -30.21276 -71.29042 11615 ft 306 kts 182°
2026-04-23 17:01 -30.23387 -71.29108 12045 ft 306 kts 182°
2026-04-23 17:01 -30.25538 -71.29176 12497 ft 305 kts 182°
2026-04-23 17:01 -30.27645 -71.29243 12924 ft 303 kts 182°
2026-04-23 17:02 -30.29730 -71.29308 13368 ft 300 kts 182°
2026-04-23 17:02 -30.31832 -71.29372 13797 ft 297 kts 182°
2026-04-23 17:02 -30.33875 -71.29436 14223 ft 294 kts 183°
2026-04-23 17:02 -30.35926 -71.29498 14666 ft 291 kts 183°
2026-04-23 17:03 -30.37949 -71.29562 15030 ft 291 kts 183°
2026-04-23 17:03 -30.39994 -71.29626 15267 ft 294 kts 183°
2026-04-23 17:03 -30.42051 -71.29691 15487 ft 297 kts 183°
2026-04-23 17:03 -30.44132 -71.29755 15723 ft 300 kts 184°
2026-04-23 17:04 -30.46200 -71.29820 15975 ft 302 kts 184°
2026-04-23 17:04 -30.48315 -71.29887 16236 ft 303 kts 184°
2026-04-23 17:04 -30.50451 -71.29953 16511 ft 305 kts 184°
2026-04-23 17:04 -30.52567 -71.30019 16735 ft 306 kts 184°
2026-04-23 17:05 -30.54696 -71.30051 16969 ft 308 kts 179°
2026-04-23 17:05 -30.56776 -71.29389 17214 ft 310 kts 155°
2026-04-23 17:05 -30.58682 -71.28226 17492 ft 311 kts 152°
2026-04-23 17:05 -30.60596 -71.27027 17734 ft 311 kts 152°
2026-04-23 17:06 -30.62505 -71.25829 17989 ft 310 kts 152°
2026-04-23 17:06 -30.64393 -71.24645 18228 ft 310 kts 153°
2026-04-23 17:06 -30.66308 -71.23447 18460 ft 310 kts 153°
2026-04-23 17:06 -30.68204 -71.22262 18720 ft 309 kts 153°
2026-04-23 17:07 -30.70104 -71.21074 18960 ft 308 kts 153°
2026-04-23 17:07 -30.71969 -71.19908 19207 ft 308 kts 153°
2026-04-23 17:07 -30.73857 -71.18729 19411 ft 309 kts 153°
2026-04-23 17:07 -30.75767 -71.17536 19579 ft 310 kts 154°
2026-04-23 17:08 -30.77679 -71.16343 19724 ft 313 kts 153°
2026-04-23 17:08 -30.79610 -71.15137 19853 ft 315 kts 153°
2026-04-23 17:08 -30.81555 -71.13921 19978 ft 318 kts 154°
2026-04-23 17:08 -30.83493 -71.12710 20111 ft 320 kts 154°
2026-04-23 17:09 -30.85478 -71.11468 20258 ft 321 kts 154°
2026-04-23 17:09 -30.87435 -71.10244 20371 ft 322 kts 154°
2026-04-23 17:09 -30.89416 -71.09003 20501 ft 323 kts 154°
2026-04-23 17:09 -30.91404 -71.07758 20646 ft 324 kts 154°
2026-04-23 17:10 -30.93377 -71.06522 20782 ft 324 kts 154°
2026-04-23 17:10 -30.95372 -71.05270 20909 ft 324 kts 154°
2026-04-23 17:10 -30.97360 -71.04024 21038 ft 324 kts 154°
2026-04-23 17:10 -30.99360 -71.02769 21145 ft 325 kts 154°
2026-04-23 17:11 -31.01348 -71.01521 21179 ft 328 kts 154°
2026-04-23 17:11 -31.03367 -71.00255 21189 ft 331 kts 154°
2026-04-23 17:11 -31.05411 -70.98971 21193 ft 334 kts 154°
2026-04-23 17:11 -31.07470 -70.97677 21195 ft 336 kts 154°
2026-04-23 17:12 -31.09516 -70.96390 21211 ft 338 kts 154°
2026-04-23 17:12 -31.11611 -70.95072 21219 ft 340 kts 154°
2026-04-23 17:12 -31.13700 -70.93757 21221 ft 342 kts 154°
2026-04-23 17:12 -31.15792 -70.92439 21244 ft 342 kts 154°
2026-04-23 17:13 -31.17904 -70.91107 21263 ft 343 kts 154°
2026-04-23 17:13 -31.19998 -70.89787 21286 ft 343 kts 154°
2026-04-23 17:13 -31.22090 -70.88467 21325 ft 342 kts 154°
2026-04-23 17:13 -31.24195 -70.87138 21349 ft 342 kts 154°
2026-04-23 17:14 -31.26282 -70.85821 21353 ft 343 kts 154°
2026-04-23 17:14 -31.28379 -70.84496 21352 ft 343 kts 154°
2026-04-23 17:14 -31.30486 -70.83164 21374 ft 342 kts 154°
2026-04-23 17:14 -31.32583 -70.81892 21392 ft 339 kts 160°
2026-04-23 17:15 -31.34840 -70.81392 21399 ft 326 kts 186°
2026-04-23 17:15 -31.37097 -70.81562 21386 ft 324 kts 189°
2026-04-23 17:15 -31.39348 -70.81780 21364 ft 325 kts 189°
2026-04-23 17:15 -31.41602 -70.82003 21367 ft 324 kts 189°
2026-04-23 17:16 -31.43822 -70.82223 21385 ft 322 kts 189°
2026-04-23 17:16 -31.46067 -70.82446 21371 ft 322 kts 189°
2026-04-23 17:16 -31.48316 -70.82668 21375 ft 322 kts 189°
2026-04-23 17:16 -31.50545 -70.82890 21371 ft 321 kts 189°
2026-04-23 17:17 -31.52768 -70.83109 21351 ft 322 kts 189°
2026-04-23 17:17 -31.55029 -70.83334 21334 ft 321 kts 189°
2026-04-23 17:17 -31.57232 -70.83552 21346 ft 320 kts 189°
2026-04-23 17:17 -31.59470 -70.83774 21371 ft 320 kts 189°
2026-04-23 17:18 -31.63955 -70.84225 21320 ft 334 kts 189°
2026-04-23 17:18 -31.66318 -70.84470 21358 ft 348 kts 189°
2026-04-23 17:18 -31.68788 -70.84721 21343 ft 361 kts 188°
2026-04-23 17:19 -31.71271 -70.84963 21320 ft 354 kts 188°
2026-04-23 17:19 -31.73714 -70.85198 21296 ft 350 kts 189°
2026-04-23 17:19 -31.76129 -70.85326 21300 ft 346 kts 183°
2026-04-23 17:19 -31.78551 -70.85252 21298 ft 343 kts 182°
2026-04-23 17:20 -31.80915 -70.85158 21289 ft 340 kts 182°
2026-04-23 17:20 -31.85587 -70.84976 21334 ft 332 kts 182°
2026-04-23 17:21 -31.90190 -70.84803 21350 ft 329 kts 182°
2026-04-23 17:21 -31.92471 -70.84721 21331 ft 330 kts 181°
2026-04-23 17:21 -31.97034 -70.84555 21360 ft 326 kts 181°
2026-04-23 17:22 -31.99318 -70.84473 21338 ft 326 kts 182°
2026-04-23 17:22 -32.03862 -70.84310 21305 ft 325 kts 182°
2026-04-23 17:23 -32.08372 -70.84149 21291 ft 324 kts 182°
2026-04-23 17:23 -32.10631 -70.84068 21293 ft 324 kts 182°
2026-04-23 17:23 -32.15159 -70.83906 21298 ft 323 kts 182°
2026-04-23 17:24 -32.17396 -70.83826 21287 ft 323 kts 182°
2026-04-23 17:24 -32.19672 -70.83746 21084 ft 329 kts 182°
2026-04-23 17:24 -32.24242 -70.83576 20322 ft 325 kts 181°
2026-04-23 17:25 -32.28716 -70.83409 19564 ft 320 kts 181°
2026-04-23 17:25 -32.30939 -70.83328 19194 ft 317 kts 181°
2026-04-23 17:26 -32.35310 -70.83168 18480 ft 312 kts 181°
2026-04-23 17:26 -32.39617 -70.83012 17787 ft 311 kts 180°
2026-04-23 17:27 -32.43977 -70.82861 17125 ft 317 kts 180°
2026-04-23 17:27 -32.46216 -70.82782 16784 ft 322 kts 180°
2026-04-23 17:27 -32.48444 -70.82703 16378 ft 325 kts 180°
2026-04-23 17:27 -32.50721 -70.82622 16036 ft 327 kts 180°
2026-04-23 17:28 -32.53022 -70.82539 15685 ft 330 kts 180°
2026-04-23 17:28 -32.55344 -70.82456 15259 ft 335 kts 180°
2026-04-23 17:28 -32.57671 -70.82372 14886 ft 336 kts 180°
2026-04-23 17:28 -32.60014 -70.82288 14525 ft 336 kts 180°
2026-04-23 17:29 -32.62362 -70.82203 14152 ft 337 kts 180°
2026-04-23 17:29 -32.64700 -70.82118 13776 ft 338 kts 180°
2026-04-23 17:29 -32.69414 -70.81947 13054 ft 341 kts 180°
2026-04-23 17:30 -32.71796 -70.81862 12631 ft 340 kts 180°
2026-04-23 17:30 -32.76515 -70.81690 11946 ft 340 kts 179°
2026-04-23 17:30 -32.78863 -70.81606 11496 ft 341 kts 179°
2026-04-23 17:31 -32.81213 -70.81518 11138 ft 330 kts 179°
2026-04-23 17:31 -32.83464 -70.81429 10760 ft 316 kts 179°
2026-04-23 17:31 -32.85627 -70.81345 10470 ft 303 kts 179°
2026-04-23 17:31 -32.87707 -70.81269 10134 ft 300 kts 180°
2026-04-23 17:32 -32.89791 -70.81194 9795 ft 295 kts 180°
2026-04-23 17:32 -32.91839 -70.81142 9477 ft 291 kts 183°
2026-04-23 17:32 -32.93841 -70.81358 9192 ft 286 kts 189°
2026-04-23 17:32 -32.95827 -70.81664 8853 ft 286 kts 189°
2026-04-23 17:33 -32.97800 -70.81970 8509 ft 285 kts 189°
2026-04-23 17:33 -32.99761 -70.82272 8191 ft 282 kts 188°
2026-04-23 17:33 -33.01727 -70.82359 7883 ft 280 kts 179°
2026-04-23 17:33 -33.03645 -70.82261 7577 ft 277 kts 178°
2026-04-23 17:34 -33.05565 -70.82133 7327 ft 269 kts 176°
2026-04-23 17:34 -33.07383 -70.81986 7056 ft 259 kts 177°
2026-04-23 17:34 -33.10876 -70.81779 6375 ft 243 kts 177°
2026-04-23 17:35 -33.12560 -70.81688 6092 ft 242 kts 177°
2026-04-23 17:35 -33.15985 -70.81505 5531 ft 249 kts 177°
2026-04-23 17:35 -33.17716 -70.81411 5215 ft 247 kts 177°
2026-04-23 17:36 -33.19418 -70.81316 4864 ft 238 kts 177°
2026-04-23 17:36 -33.21036 -70.81230 4554 ft 229 kts 177°
2026-04-23 17:36 -33.22606 -70.81145 4254 ft 218 kts 178°
2026-04-23 17:36 -33.24078 -70.81067 4048 ft 204 kts 178°
2026-04-23 17:37 -33.25478 -70.80993 3779 ft 197 kts 178°
2026-04-23 17:37 -33.26833 -70.80924 3553 ft 189 kts 178°
2026-04-23 17:37 -33.29353 -70.80789 3029 ft 167 kts 178°
2026-04-23 17:38 -33.30473 -70.80727 2833 ft 155 kts 179°
2026-04-23 17:38 -33.31575 -70.80683 2669 ft 162 kts 179°
2026-04-23 17:38 -33.32749 -70.80621 2457 ft 169 kts 178°
2026-04-23 17:38 -33.33930 -70.80537 2246 ft 172 kts 176°
2026-04-23 17:39 -33.35121 -70.80455 1970 ft 168 kts 178°
2026-04-23 17:39 -33.36259 -70.80411 1787 ft 157 kts 180°
2026-04-23 17:39 -33.37344 -70.80362 1598 ft 152 kts 178°
2026-04-23 17:39 -33.38299 -70.80315 1569 ft 122 kts 177°
2026-04-23 17:40 -33.39105 -70.80270 1569 ft 105 kts 178°
2026-04-23 17:40 -33.39717 -70.80241 1568 ft 65 kts 175°
2026-04-23 17:40 -33.39957 -70.80164 1568 ft 18 kts 149°
2026-04-23 17:40 -33.40011 -70.80125 1568 ft 6 kts 148°
2026-04-23 17:41 -33.40058 -70.80090 1568 ft 8 kts 148°
2026-04-23 17:41 -33.40163 -70.79963 1568 ft 11 kts 93°
2026-04-23 17:41 -33.40160 -70.79879 1568 ft 9 kts 87°
2026-04-23 17:42 -33.40106 -70.79806 1568 ft 5 kts 359°
2026-04-23 17:42 -33.40075 -70.79807 1568 ft 0 kts 359°